Weather History for KRTN - March, 2014

Change the Weather History Date:

Wednesday, March 19, 2014

  Actual Average (KTAD) Record (KTAD)
Temperature  
Mean Temperature 34 °F 43 °F  
Max Temperature 53 °F 59 °F - ()
Min Temperature 14 °F 27 °F - ()
Degree Days  
Heating Degree Days 32 22  
Month to date heating degree days 459  
Since 1 July heating degree days 4581  
Cooling Degree Days 0 0  
Month to date cooling degree days 0  
Year to date cooling degree days 0  
Moisture  
Dew Point 9 °F    
Average Humidity 43    
Maximum Humidity 80    
Minimum Humidity 14    
Precipitation  
Precipitation 0.00 in 0.03 in - ()
Month to date precipitation 0.52  
Year to date precipitation 1.41  
Sea Level Pressure  
Sea Level Pressure 30.15 in    
Wind  
Wind Speed 8 mph (SE)    
Max Wind Speed 15 mph    
Max Gust Speed 22 mph    
Visibility 10 miles    
Events      
T = Trace of Precipitation, MM = Missing Value Source: NWS Daily Summary

Daily Weather History Graph

Daily Weather History Graph

Search for Another Location

Airport or City:

Trip Planner

Search our weather history database for the weather conditions in past years. The results will help you decide how hot, cold, wet, or windy it might be!

Date:

Astronomy

Mar. 19, 2014 Rise Set
Actual Time 7:02 AM MDT 7:09 PM MDT
Civil Twilight 6:37 AM MDT 7:34 PM MDT
Nautical Twilight 6:07 AM MDT 8:05 PM MDT
Astronomical Twilight 5:36 AM MDT 8:35 PM MDT
Moon 10:24 PM MDT (3/19) 8:35 AM MDT (3/19)
Length of Visible Light 12h 57m
Length of Day
12h 06m
Waning Gibbous, 91% of the Moon is Illuminated
Mar 19
Waning Gibbous
Mar 23
Last Quarter
Mar 30
New
Apr 7
First Quarter
Apr 15
Full

Hourly Weather History & Observations

Time (MDT) Temp. Windchill Dew Point Humidity Pressure Visibility Wind Dir Wind Speed Gust Speed Precip Events Conditions
12:53 AM 23.0 °F 13.9 °F 10.0 °F 58% 30.05 in 10.0 mi NNW 8.1 mph - N/A   Clear
1:53 AM 23.0 °F 13.1 °F 10.9 °F 60% 30.10 in 10.0 mi North 9.2 mph - N/A   Clear
2:53 AM 23.0 °F 13.9 °F 12.0 °F 63% 30.11 in 10.0 mi North 8.1 mph - N/A   Clear
3:53 AM 19.9 °F 14.9 °F 10.9 °F 68% 30.11 in 10.0 mi NE 3.5 mph - N/A   Clear
4:53 AM 17.1 °F 10.0 °F 10.0 °F 74% 30.18 in 10.0 mi NE 4.6 mph - N/A   Clear
5:53 AM 14.0 °F 5.1 °F 9.0 °F 80% 30.22 in 10.0 mi NNE 5.8 mph - N/A   Clear
6:53 AM 14.0 °F 6.5 °F 8.1 °F 77% 30.25 in 10.0 mi NE 4.6 mph - N/A   Clear
7:53 AM 17.1 °F 7.6 °F 10.0 °F 74% 30.27 in 10.0 mi NE 6.9 mph - N/A   Clear
8:53 AM 25.0 °F 18.1 °F 12.0 °F 58% 30.27 in 10.0 mi ENE 5.8 mph - N/A   Clear
9:53 AM 30.0 °F 24.1 °F 12.9 °F 49% 30.25 in 10.0 mi ESE 5.8 mph - N/A   Clear
10:53 AM 35.1 °F 28.6 °F 12.9 °F 40% 30.24 in 9.0 mi SSW 8.1 mph - N/A   Clear
11:53 AM 41.0 °F 37.1 °F 12.0 °F 31% 30.20 in 10.0 mi South 5.8 mph - N/A   Clear
12:53 PM 44.1 °F 40.1 °F 10.0 °F 25% 30.16 in 10.0 mi East 6.9 mph - N/A   Clear
1:53 PM 46.0 °F 40.6 °F 9.0 °F 22% 30.11 in 10.0 mi South 11.5 mph 17.3 mph N/A   Clear
2:53 PM 50.0 °F - 7.0 °F 18% 30.07 in 10.0 mi SSW 9.2 mph - N/A   Clear
3:53 PM 52.0 °F - 5.0 °F 15% 30.06 in 10.0 mi South 9.2 mph 18.4 mph N/A   Clear
4:53 PM 53.1 °F - 5.0 °F 14% 30.06 in 10.0 mi South 15.0 mph 21.9 mph N/A   Clear
5:53 PM 51.1 °F - 3.9 °F 15% 30.07 in 10.0 mi South 12.7 mph - N/A   Clear
6:53 PM 46.0 °F 40.6 °F 7.0 °F 20% 30.12 in 10.0 mi South 11.5 mph - N/A   Clear
7:53 PM 41.0 °F 35.8 °F 8.1 °F 26% 30.15 in 10.0 mi West 8.1 mph - N/A   Clear
8:53 PM 42.1 °F 37.1 °F 9.0 °F 26% 30.12 in 10.0 mi SW 8.1 mph - N/A   Clear
9:53 PM 37.9 °F 34.4 °F 8.1 °F 29% 30.15 in 10.0 mi South 4.6 mph - N/A   Clear
10:53 PM 28.9 °F 22.8 °F 7.0 °F 40% 30.16 in 10.0 mi NNW 5.8 mph - N/A   Clear
11:53 PM 28.9 °F 22.8 °F 7.0 °F 40% 30.13 in 10.0 mi NNW 5.8 mph - N/A   Clear